Location: Unspecified
(42.3650°N, 71.1030°W)
Time: 04:24:26
(UTC+00:00)

Explorer 11/Cluster Stage 4 - Pass Details

Date: 29 June 2024
Orbit: 465 x 1216 km, 28.8° (Epoch: 13 July)

Event Time Altitude Azimuth Distance (km) Brightness Sun altitude
Rises 03:09:08 0° 258° (WSW) 4,102 10.4 -20.6°
Reaches altitude 10° 03:13:22 10° 238° (WSW) 3,156 9.6 -20.9°
Enters shadow 03:17:09 16° 210° (SSW) 2,733 9.0 -21.2°
Maximum altitude 03:17:42 16° 205° (SSW) 2,721 - -21.2°
Drops below altitude 10° 03:21:57 10° 171° (S) 3,069 - -21.5°
Sets 03:26:00 0° 151° (SSE) 3,930 - -21.8°
